SAS7371 ENZV-LGRP

Flight info

Callsign SAS7371
Flight time N/A
Altitude 33000
Route PEVEB DCT SONAL DCT BINKA DCT REGLI/N0449F350 DCT LITKU DCT OVDOT DCT NIKTI DCT MES UN139 LURUS UL995 CODIC
Aircraft A321/M-SDE3FGHIRWY/LB1

Departure

Time N/A
Airport Stavanger Airport, Sola (ENZV)

Arrival

Time 2026-04-27 22:40
Airport Rhodes International Airport "Diagoras" (LGRP)
Time Latitude Longitude Altitude Speed Heading
2026-04-27 20:10 52.56671 15.54707 33297 ft 488 kts 151°
2026-04-27 20:10 52.50907 15.60637 33294 ft 488 kts 151°
2026-04-27 20:11 52.45135 15.66560 33291 ft 489 kts 151°
2026-04-27 20:11 52.39410 15.72423 33273 ft 489 kts 151°
2026-04-27 20:12 52.33628 15.78318 33271 ft 489 kts 152°
2026-04-27 20:12 52.27849 15.84189 33262 ft 489 kts 151°
2026-04-27 20:13 52.22071 15.90049 33259 ft 489 kts 152°
2026-04-27 20:13 52.16289 15.95887 33247 ft 489 kts 152°
2026-04-27 20:14 52.10495 16.01722 33249 ft 490 kts 152°
2026-04-27 20:14 52.04686 16.07546 33245 ft 490 kts 152°
2026-04-27 20:15 51.98889 16.13353 33252 ft 490 kts 152°
2026-04-27 20:15 51.93068 16.19158 33251 ft 491 kts 152°
2026-04-27 20:16 51.87255 16.24937 33228 ft 491 kts 152°
2026-04-27 20:16 51.81412 16.30721 33239 ft 492 kts 152°
2026-04-27 20:17 51.75566 16.36504 33242 ft 493 kts 152°
2026-04-27 20:17 51.70713 16.41292 33245 ft 493 kts 152°
2026-04-27 20:18 51.63861 16.48038 33253 ft 494 kts 152°
2026-04-27 20:18 51.57994 16.53782 33228 ft 494 kts 152°
2026-04-27 20:19 51.52126 16.59520 33257 ft 495 kts 152°
2026-04-27 20:19 51.46227 16.65260 33254 ft 496 kts 152°
2026-04-27 20:20 51.40324 16.70983 33253 ft 496 kts 152°
2026-04-27 20:20 51.34424 16.76697 33255 ft 496 kts 152°
2026-04-27 20:21 51.28509 16.82408 33224 ft 496 kts 152°
2026-04-27 20:21 51.22590 16.88115 33216 ft 496 kts 153°
2026-04-27 20:22 51.16662 16.93794 33229 ft 497 kts 153°
2026-04-27 20:22 51.10733 16.99461 33227 ft 498 kts 153°
2026-04-27 20:23 51.04793 17.05113 33231 ft 498 kts 153°
2026-04-27 20:23 50.98837 17.10776 33210 ft 498 kts 153°
2026-04-27 20:24 50.92934 17.16383 33223 ft 498 kts 153°
2026-04-27 20:24 50.86976 17.22013 33240 ft 499 kts 153°
2026-04-27 20:25 50.81001 17.27637 33246 ft 499 kts 153°
2026-04-27 20:25 50.75025 17.33240 33244 ft 500 kts 153°
2026-04-27 20:26 50.69052 17.38824 33241 ft 499 kts 153°
2026-04-27 20:26 50.63078 17.44404 33243 ft 500 kts 153°
2026-04-27 20:27 50.57092 17.49979 33253 ft 500 kts 153°
2026-04-27 20:27 50.51109 17.55542 33249 ft 500 kts 153°
2026-04-27 20:28 50.45107 17.61105 33224 ft 500 kts 153°
2026-04-27 20:28 50.40120 17.65702 33318 ft 500 kts 153°
2026-04-27 20:29 50.36110 17.69383 33640 ft 499 kts 153°
2026-04-27 20:29 50.33107 17.72134 33852 ft 498 kts 153°
2026-04-27 20:29 50.30119 17.74868 34044 ft 498 kts 153°
2026-04-27 20:29 50.27126 17.77607 34229 ft 498 kts 153°
2026-04-27 20:30 50.24136 17.80343 34351 ft 499 kts 153°
2026-04-27 20:30 50.21129 17.83094 34518 ft 499 kts 153°
2026-04-27 20:30 50.18132 17.85831 34648 ft 499 kts 153°
2026-04-27 20:30 50.15185 17.88519 34807 ft 498 kts 153°
2026-04-27 20:31 50.12185 17.91249 34964 ft 498 kts 153°
2026-04-27 20:31 50.09198 17.93964 35139 ft 497 kts 153°
2026-04-27 20:31 50.03212 17.99386 35220 ft 498 kts 153°
2026-04-27 20:32 49.97243 18.04851 35214 ft 498 kts 152°
2026-04-27 20:32 49.91306 18.10379 35215 ft 498 kts 152°
2026-04-27 20:33 49.85364 18.15899 35219 ft 497 kts 152°
2026-04-27 20:33 49.79422 18.21377 35221 ft 497 kts 152°
2026-04-27 20:34 49.73462 18.26834 35226 ft 498 kts 152°
2026-04-27 20:34 49.67503 18.32286 35236 ft 498 kts 152°
2026-04-27 20:35 49.61534 18.37738 35232 ft 498 kts 152°
2026-04-27 20:35 49.55553 18.43171 35232 ft 499 kts 152°
2026-04-27 20:36 49.49567 18.48597 35221 ft 499 kts 152°
2026-04-27 20:36 49.43626 18.53969 35232 ft 499 kts 152°
2026-04-27 20:37 49.37639 18.59373 35246 ft 500 kts 152°
2026-04-27 20:37 49.31637 18.64778 35230 ft 499 kts 153°
2026-04-27 20:38 49.25656 18.70146 35240 ft 499 kts 153°
2026-04-27 20:38 49.19659 18.75510 35240 ft 499 kts 153°
2026-04-27 20:39 49.13660 18.80847 35241 ft 498 kts 153°
2026-04-27 20:39 49.07661 18.86170 35231 ft 498 kts 153°
2026-04-27 20:40 49.01677 18.91477 35234 ft 498 kts 153°
2026-04-27 20:40 48.95686 18.96781 35234 ft 498 kts 153°
2026-04-27 20:41 48.89701 19.02065 35233 ft 498 kts 153°
2026-04-27 20:41 48.83714 19.07327 35229 ft 497 kts 153°
2026-04-27 20:42 48.77719 19.12579 35221 ft 497 kts 153°
2026-04-27 20:42 48.71723 19.17816 35218 ft 498 kts 153°
2026-04-27 20:43 48.66734 19.22164 35218 ft 498 kts 153°
2026-04-27 20:43 48.60724 19.27401 35215 ft 498 kts 153°
2026-04-27 20:44 48.54725 19.32612 35183 ft 498 kts 153°
2026-04-27 20:44 48.48728 19.37810 35201 ft 497 kts 153°
2026-04-27 20:45 48.42716 19.42988 35207 ft 497 kts 153°
2026-04-27 20:45 48.36716 19.48141 35197 ft 497 kts 153°
2026-04-27 20:46 48.30711 19.53291 35200 ft 497 kts 153°
2026-04-27 20:46 48.24710 19.58420 35185 ft 496 kts 153°
2026-04-27 20:47 48.18767 19.63739 35201 ft 498 kts 149°
2026-04-27 20:47 48.13032 19.69540 35194 ft 498 kts 147°
2026-04-27 20:48 48.07317 19.75432 35192 ft 498 kts 148°
2026-04-27 20:48 48.01552 19.81182 35191 ft 498 kts 149°
2026-04-27 20:49 47.95745 19.86836 35176 ft 498 kts 148°
2026-04-27 20:49 47.89928 19.92488 35198 ft 499 kts 148°
2026-04-27 20:50 47.84127 19.98151 35195 ft 499 kts 148°
2026-04-27 20:50 47.78352 20.03792 35193 ft 500 kts 148°
2026-04-27 20:51 47.72489 20.09490 35167 ft 500 kts 148°
2026-04-27 20:51 47.66703 20.15104 35199 ft 500 kts 148°
2026-04-27 20:52 47.60880 20.20735 35188 ft 500 kts 148°
2026-04-27 20:52 47.55049 20.26348 35191 ft 499 kts 148°
2026-04-27 20:53 47.49222 20.31937 35185 ft 499 kts 148°
2026-04-27 20:53 47.43392 20.37517 35182 ft 499 kts 148°
2026-04-27 20:54 47.34655 20.45875 35189 ft 499 kts 148°
2026-04-27 20:55 47.28827 20.51431 35186 ft 499 kts 148°
2026-04-27 20:55 47.22984 20.56979 35189 ft 499 kts 148°
2026-04-27 20:56 47.17144 20.62503 35181 ft 499 kts 148°
2026-04-27 20:56 47.11300 20.68011 35191 ft 499 kts 148°
2026-04-27 20:57 47.05458 20.73516 35197 ft 499 kts 148°
2026-04-27 20:57 46.99614 20.79014 35195 ft 499 kts 148°
2026-04-27 20:58 46.93779 20.84484 35196 ft 499 kts 148°
2026-04-27 20:58 46.87934 20.89955 35202 ft 499 kts 148°
2026-04-27 20:59 46.82079 20.95412 35184 ft 499 kts 148°
2026-04-27 20:59 46.76217 21.00859 35191 ft 500 kts 148°
2026-04-27 21:00 46.70341 21.06304 35194 ft 500 kts 148°
2026-04-27 21:00 46.64470 21.11732 35200 ft 500 kts 148°
2026-04-27 21:01 46.58639 21.17118 35205 ft 500 kts 148°
2026-04-27 21:01 46.52764 21.22523 35205 ft 500 kts 148°
2026-04-27 21:02 46.46892 21.27905 35205 ft 499 kts 148°
2026-04-27 21:02 46.41014 21.33289 35187 ft 499 kts 148°
2026-04-27 21:03 46.35146 21.38652 35194 ft 499 kts 148°
2026-04-27 21:03 46.29253 21.44009 35194 ft 499 kts 148°
2026-04-27 21:04 46.23372 21.49346 35194 ft 499 kts 148°
2026-04-27 21:04 46.17485 21.54688 35198 ft 499 kts 148°
2026-04-27 21:05 46.11608 21.60005 35206 ft 499 kts 148°
2026-04-27 21:05 46.05724 21.65313 35210 ft 498 kts 148°
2026-04-27 21:06 45.99852 21.70590 35209 ft 498 kts 148°
2026-04-27 21:06 45.93974 21.75853 35209 ft 498 kts 148°
2026-04-27 21:07 45.88099 21.81107 35210 ft 497 kts 148°
2026-04-27 21:07 45.82229 21.86356 35209 ft 497 kts 148°
2026-04-27 21:08 45.76398 21.91548 35216 ft 496 kts 148°
2026-04-27 21:08 45.70531 21.96743 35209 ft 496 kts 148°
2026-04-27 21:09 45.64658 22.01939 35215 ft 496 kts 148°
2026-04-27 21:09 45.58790 22.07132 35216 ft 496 kts 148°
2026-04-27 21:10 45.52932 22.12295 35215 ft 495 kts 148°
2026-04-27 21:10 45.47067 22.17450 35226 ft 495 kts 148°
2026-04-27 21:11 45.41205 22.22596 35219 ft 494 kts 148°
2026-04-27 21:11 45.35354 22.27713 35221 ft 494 kts 148°
2026-04-27 21:12 45.29498 22.32816 35232 ft 493 kts 148°
2026-04-27 21:12 45.23654 22.37900 35231 ft 492 kts 148°
2026-04-27 21:13 45.17812 22.42970 35231 ft 492 kts 148°
2026-04-27 21:13 45.12005 22.47993 35217 ft 492 kts 148°
2026-04-27 21:14 45.06172 22.53040 35226 ft 491 kts 148°
2026-04-27 21:14 45.00334 22.58076 35225 ft 491 kts 148°
2026-04-27 21:15 44.94506 22.63086 35228 ft 490 kts 148°
2026-04-27 21:15 44.88676 22.68088 35229 ft 490 kts 149°
2026-04-27 21:16 44.82860 22.73072 35218 ft 489 kts 149°
2026-04-27 21:16 44.77042 22.78033 35216 ft 488 kts 149°
2026-04-27 21:17 44.71224 22.82980 35207 ft 488 kts 149°
2026-04-27 21:17 44.65417 22.87917 35209 ft 488 kts 149°
2026-04-27 21:18 44.59645 22.92819 35192 ft 487 kts 149°
2026-04-27 21:18 44.53748 22.97460 35197 ft 486 kts 158°
2026-04-27 21:19 44.47285 23.00333 35200 ft 484 kts 165°
2026-04-27 21:19 44.40840 23.02900 35195 ft 484 kts 165°
2026-04-27 21:20 44.31126 23.06816 35202 ft 484 kts 165°
2026-04-27 21:20 44.24651 23.09403 35198 ft 484 kts 166°
2026-04-27 21:21 44.18168 23.11978 35198 ft 484 kts 165°
2026-04-27 21:21 44.11690 23.14552 35189 ft 484 kts 165°
2026-04-27 21:22 44.05214 23.17115 35204 ft 484 kts 166°
2026-04-27 21:22 43.98743 23.19673 35199 ft 483 kts 166°
2026-04-27 21:23 43.92315 23.22205 35187 ft 483 kts 166°
2026-04-27 21:23 43.85860 23.24743 35194 ft 482 kts 166°
2026-04-27 21:24 43.79416 23.27281 35195 ft 482 kts 166°
2026-04-27 21:24 43.72968 23.29813 35192 ft 481 kts 166°
2026-04-27 21:25 43.66536 23.32321 35198 ft 480 kts 166°
2026-04-27 21:25 43.60119 23.34816 35198 ft 479 kts 166°
2026-04-27 21:26 43.53694 23.37316 35199 ft 478 kts 166°
2026-04-27 21:26 43.47310 23.39797 35188 ft 478 kts 166°
2026-04-27 21:27 43.40893 23.42289 35195 ft 478 kts 166°
2026-04-27 21:27 43.34510 23.44761 35198 ft 477 kts 166°
2026-04-27 21:28 43.28155 23.47202 35196 ft 476 kts 166°
2026-04-27 21:28 43.21779 23.49654 35212 ft 476 kts 166°
2026-04-27 21:29 43.15393 23.52110 35201 ft 476 kts 166°
2026-04-27 21:29 43.09023 23.54551 35212 ft 475 kts 166°
2026-04-27 21:30 43.03742 23.56567 35212 ft 474 kts 166°
2026-04-27 21:30 42.97411 23.58988 35222 ft 472 kts 166°
2026-04-27 21:31 42.91082 23.61402 35220 ft 472 kts 166°
2026-04-27 21:31 42.84768 23.63810 35219 ft 471 kts 166°
2026-04-27 21:32 42.78450 23.66202 35224 ft 471 kts 167°
2026-04-27 21:32 42.72146 23.68580 35227 ft 470 kts 167°
2026-04-27 21:33 42.65837 23.70961 35222 ft 470 kts 167°
2026-04-27 21:33 42.59541 23.73338 35224 ft 469 kts 167°
2026-04-27 21:34 42.53242 23.75710 35225 ft 469 kts 167°
2026-04-27 21:34 42.46944 23.78070 35240 ft 469 kts 167°
2026-04-27 21:35 42.40698 23.80414 35228 ft 469 kts 167°
2026-04-27 21:35 42.34403 23.82755 35225 ft 469 kts 168°
2026-04-27 21:36 42.28120 23.85092 35228 ft 469 kts 167°
2026-04-27 21:36 42.21819 23.87439 35226 ft 469 kts 167°
2026-04-27 21:37 42.15526 23.89782 35229 ft 469 kts 168°
2026-04-27 21:37 42.09235 23.92118 35222 ft 469 kts 168°
2026-04-27 21:38 42.02940 23.94448 35213 ft 469 kts 168°
2026-04-27 21:38 41.96651 23.96774 35219 ft 469 kts 168°
2026-04-27 21:39 41.90354 23.99097 35223 ft 469 kts 168°
2026-04-27 21:39 41.84051 24.01409 35226 ft 469 kts 168°
2026-04-27 21:40 41.77758 24.03712 35224 ft 469 kts 168°
2026-04-27 21:40 41.71494 24.06016 35228 ft 469 kts 168°
2026-04-27 21:41 41.65209 24.08319 35226 ft 468 kts 168°
2026-04-27 21:41 41.58919 24.10597 35223 ft 468 kts 168°
2026-04-27 21:42 41.52676 24.13259 35233 ft 471 kts 160°
2026-04-27 21:42 41.46696 24.16688 35234 ft 471 kts 160°
2026-04-27 21:43 41.40659 24.20124 35234 ft 471 kts 160°
2026-04-27 21:43 41.34624 24.23545 35227 ft 471 kts 160°
2026-04-27 21:44 41.28602 24.26958 35234 ft 471 kts 160°
2026-04-27 21:44 41.22574 24.30365 35232 ft 471 kts 160°
2026-04-27 21:45 41.16544 24.33773 35219 ft 471 kts 160°
2026-04-27 21:45 41.10507 24.37171 35227 ft 471 kts 160°
2026-04-27 21:46 41.04474 24.40560 35216 ft 471 kts 160°
2026-04-27 21:46 40.98435 24.43947 35217 ft 471 kts 160°
2026-04-27 21:47 40.92402 24.47325 35206 ft 471 kts 160°
2026-04-27 21:47 40.86359 24.50691 35214 ft 471 kts 161°
2026-04-27 21:48 40.80316 24.54051 35217 ft 471 kts 161°
2026-04-27 21:48 40.74277 24.57415 35227 ft 471 kts 160°
2026-04-27 21:49 40.68237 24.60778 35216 ft 471 kts 160°
2026-04-27 21:49 40.62230 24.64109 35216 ft 472 kts 161°
2026-04-27 21:50 40.56178 24.67459 35219 ft 472 kts 161°
2026-04-27 21:50 40.50121 24.70800 35217 ft 472 kts 161°
2026-04-27 21:51 40.44068 24.74125 35208 ft 472 kts 161°
2026-04-27 21:51 40.38017 24.77454 35211 ft 472 kts 160°
2026-04-27 21:52 40.31956 24.80791 35209 ft 472 kts 160°
2026-04-27 21:52 40.25906 24.84116 35201 ft 472 kts 160°
2026-04-27 21:53 40.19849 24.87432 35203 ft 472 kts 160°
2026-04-27 21:53 40.13776 24.90736 35210 ft 472 kts 161°
2026-04-27 21:54 40.07713 24.94027 35202 ft 471 kts 161°
2026-04-27 21:54 40.01698 24.97292 35195 ft 471 kts 160°
2026-04-27 21:55 39.95643 25.00580 35206 ft 471 kts 160°
2026-04-27 21:55 39.89586 25.03860 35196 ft 471 kts 160°
2026-04-27 21:56 39.80502 25.08770 35193 ft 471 kts 160°
2026-04-27 21:57 39.74526 25.11995 35187 ft 471 kts 160°
2026-04-27 21:57 39.68472 25.15251 35191 ft 471 kts 160°
2026-04-27 21:58 39.62417 25.18490 35186 ft 471 kts 160°
2026-04-27 21:58 39.56403 25.21714 35177 ft 471 kts 160°
2026-04-27 21:59 39.50349 25.24957 35183 ft 471 kts 160°
2026-04-27 21:59 39.44290 25.28190 35183 ft 471 kts 160°
2026-04-27 22:00 39.38235 25.31411 35176 ft 471 kts 160°
2026-04-27 22:00 39.32177 25.34641 35159 ft 471 kts 161°
2026-04-27 22:01 39.26103 25.37869 35163 ft 471 kts 161°
2026-04-27 22:01 39.20034 25.41077 35156 ft 472 kts 161°
2026-04-27 22:02 39.14000 25.44266 35155 ft 472 kts 161°
2026-04-27 22:02 39.07930 25.47468 35146 ft 472 kts 161°
2026-04-27 22:03 39.01859 25.50663 35147 ft 472 kts 161°
2026-04-27 22:03 38.95786 25.53862 35146 ft 472 kts 161°
2026-04-27 22:04 38.89704 25.57055 35137 ft 472 kts 161°
2026-04-27 22:04 38.83623 25.60244 35124 ft 472 kts 161°
2026-04-27 22:05 38.77544 25.63422 35136 ft 472 kts 161°
2026-04-27 22:05 38.71468 25.66595 35127 ft 471 kts 161°
2026-04-27 22:06 38.65395 25.69752 35126 ft 471 kts 161°
2026-04-27 22:06 38.59363 25.72885 35114 ft 471 kts 161°
2026-04-27 22:07 38.53260 25.76061 35123 ft 471 kts 161°
2026-04-27 22:07 38.47226 25.79191 35114 ft 471 kts 161°
2026-04-27 22:08 38.41157 25.82328 35111 ft 471 kts 161°
2026-04-27 22:08 38.35088 25.85459 35097 ft 470 kts 161°
2026-04-27 22:09 38.29013 25.88590 35111 ft 470 kts 161°
2026-04-27 22:09 38.22940 25.91681 35100 ft 470 kts 162°
2026-04-27 22:10 38.16793 25.94514 35097 ft 469 kts 164°
2026-04-27 22:10 38.10663 25.97208 35093 ft 469 kts 164°
2026-04-27 22:11 38.04518 25.99961 35103 ft 469 kts 163°
2026-04-27 22:11 37.98379 26.02768 35096 ft 468 kts 163°
2026-04-27 22:12 37.92242 26.05564 35096 ft 468 kts 163°
2026-04-27 22:12 37.86100 26.08339 35087 ft 468 kts 163°
2026-04-27 22:13 37.79961 26.11102 35091 ft 468 kts 163°
2026-04-27 22:13 37.73857 26.13852 35088 ft 468 kts 163°
2026-04-27 22:14 37.67720 26.16622 35084 ft 468 kts 163°
2026-04-27 22:14 37.61590 26.19375 35085 ft 468 kts 163°
2026-04-27 22:15 37.55441 26.22131 35081 ft 468 kts 163°
2026-04-27 22:15 37.49686 26.25884 35070 ft 474 kts 142°
2026-04-27 22:16 37.44641 26.31274 35069 ft 475 kts 141°
2026-04-27 22:16 37.39634 26.36711 35061 ft 475 kts 141°
2026-04-27 22:17 37.34653 26.42111 35055 ft 476 kts 141°
2026-04-27 22:17 37.29622 26.47518 35057 ft 476 kts 141°
2026-04-27 22:18 37.24589 26.52899 35053 ft 476 kts 142°
2026-04-27 22:18 37.19723 26.58086 35051 ft 476 kts 142°
2026-04-27 22:19 37.16415 26.61607 35051 ft 476 kts 141°
2026-04-27 22:19 37.15027 26.63089 35046 ft 476 kts 141°
2026-04-27 22:20 37.10004 26.68463 35041 ft 474 kts 142°
2026-04-27 22:20 37.04947 26.73851 35050 ft 478 kts 142°
2026-04-27 22:21 36.99893 26.79200 35045 ft 478 kts 142°
2026-04-27 22:21 36.94789 26.84599 35038 ft 477 kts 142°
2026-04-27 22:21 36.92258 26.87280 34709 ft 475 kts 141°
2026-04-27 22:22 36.89749 26.89936 34049 ft 475 kts 141°
2026-04-27 22:22 36.87229 26.92597 33243 ft 475 kts 141°
2026-04-27 22:22 36.84704 26.95263 32416 ft 475 kts 141°
2026-04-27 22:22 36.82173 26.97937 31583 ft 476 kts 141°
2026-04-27 22:23 36.79645 27.00607 30739 ft 477 kts 140°
2026-04-27 22:23 36.77132 27.03257 29879 ft 478 kts 140°
2026-04-27 22:23 36.74562 27.05965 28852 ft 479 kts 140°
2026-04-27 22:23 36.72046 27.08617 28038 ft 480 kts 140°
2026-04-27 22:24 36.69617 27.11488 27339 ft 482 kts 132°
2026-04-27 22:24 36.67550 27.14778 26734 ft 484 kts 124°
2026-04-27 22:24 36.65883 27.18424 26090 ft 486 kts 115°
2026-04-27 22:24 36.64519 27.22279 25475 ft 488 kts 113°
2026-04-27 22:25 36.63160 27.26159 24864 ft 489 kts 114°
2026-04-27 22:25 36.61796 27.30042 24273 ft 491 kts 114°
2026-04-27 22:25 36.60422 27.33940 23711 ft 490 kts 114°
2026-04-27 22:25 36.59056 27.37813 23423 ft 488 kts 114°
2026-04-27 22:26 36.57694 27.41667 23152 ft 487 kts 114°
2026-04-27 22:26 36.56337 27.45500 22881 ft 485 kts 114°
2026-04-27 22:26 36.54977 27.49343 22605 ft 483 kts 114°
2026-04-27 22:26 36.53630 27.53149 22336 ft 481 kts 114°
2026-04-27 22:27 36.52278 27.56966 21759 ft 478 kts 114°
2026-04-27 22:27 36.50945 27.60723 20870 ft 473 kts 114°
2026-04-27 22:27 36.49644 27.64393 20049 ft 468 kts 113°
2026-04-27 22:27 36.48340 27.68076 19221 ft 462 kts 113°
2026-04-27 22:28 36.47092 27.71736 18426 ft 457 kts 109°
2026-04-27 22:28 36.46250 27.75481 17674 ft 445 kts 99°
2026-04-27 22:28 36.45767 27.79128 17030 ft 412 kts 98°
2026-04-27 22:28 36.45312 27.82594 16044 ft 397 kts 96°
2026-04-27 22:29 36.45057 27.85893 15766 ft 375 kts 93°
2026-04-27 22:29 36.44850 27.89103 14994 ft 377 kts 93°
2026-04-27 22:29 36.44659 27.92412 13845 ft 389 kts 92°
2026-04-27 22:29 36.44475 27.95816 12537 ft 401 kts 92°
2026-04-27 22:30 36.44285 27.99317 11381 ft 409 kts 93°
2026-04-27 22:30 36.44085 28.02833 10532 ft 407 kts 93°
2026-04-27 22:30 36.43879 28.06325 9753 ft 403 kts 94°
2026-04-27 22:30 36.43671 28.09779 8928 ft 399 kts 94°
2026-04-27 22:31 36.43463 28.13182 8145 ft 394 kts 94°
2026-04-27 22:31 36.43257 28.16547 7375 ft 387 kts 94°
2026-04-27 22:31 36.43054 28.19845 6607 ft 381 kts 94°
2026-04-27 22:31 36.42852 28.23138 5705 ft 379 kts 94°
2026-04-27 22:32 36.42652 28.26373 5026 ft 371 kts 94°
2026-04-27 22:32 36.42405 28.29522 4620 ft 356 kts 101°
2026-04-27 22:32 36.41470 28.32228 4422 ft 337 kts 127°
2026-04-27 22:32 36.40012 28.34339 4261 ft 318 kts 128°
2026-04-27 22:33 36.39119 28.36747 4188 ft 298 kts 98°
2026-04-27 22:33 36.39359 28.39190 4127 ft 279 kts 64°
2026-04-27 22:33 36.40560 28.40925 4074 ft 261 kts 29°
2026-04-27 22:33 36.42245 28.41427 4007 ft 244 kts 354°
2026-04-27 22:34 36.43858 28.40974 3940 ft 235 kts 338°
2026-04-27 22:34 36.45285 28.39998 3898 ft 235 kts 322°
2026-04-27 22:34 36.46439 28.38575 3843 ft 235 kts 306°
2026-04-27 22:34 36.47232 28.36812 3797 ft 235 kts 290°
2026-04-27 22:35 36.47603 28.34831 3748 ft 235 kts 274°
2026-04-27 22:35 36.47518 28.32808 3629 ft 235 kts 258°
2026-04-27 22:35 36.47028 28.30899 3386 ft 233 kts 250°
2026-04-27 22:35 36.46525 28.29169 3124 ft 231 kts 248°
2026-04-27 22:36 36.45970 28.27267 2820 ft 231 kts 251°
2026-04-27 22:36 36.45437 28.25425 2505 ft 221 kts 251°
2026-04-27 22:36 36.44944 28.23730 2252 ft 202 kts 251°
2026-04-27 22:36 36.44491 28.22175 1992 ft 180 kts 251°
2026-04-27 22:37 36.44089 28.20796 1762 ft 161 kts 252°
2026-04-27 22:37 36.43723 28.19540 1552 ft 150 kts 252°
2026-04-27 22:37 36.43373 28.18336 1358 ft 146 kts 251°
2026-04-27 22:37 36.43029 28.17157 1173 ft 145 kts 251°
2026-04-27 22:38 36.42686 28.15980 985 ft 144 kts 251°
2026-04-27 22:38 36.42347 28.14818 799 ft 143 kts 251°
2026-04-27 22:38 36.42013 28.13658 628 ft 142 kts 249°
2026-04-27 22:38 36.41704 28.12517 414 ft 141 kts 251°
2026-04-27 22:39 36.41358 28.11382 234 ft 140 kts 247°
2026-04-27 22:39 36.41021 28.10251 57 ft 140 kts 248°
2026-04-27 22:39 36.40709 28.09206 30 ft 107 kts 249°
2026-04-27 22:39 36.40510 28.08544 27 ft 57 kts 250°
2026-04-27 22:40 36.40430 28.08280 27 ft 8 kts 249°
2026-04-27 22:40 36.40422 28.08253 27 ft 6 kts 249°
2026-04-27 22:40 36.40406 28.08205 27 ft 12 kts 247°
2026-04-27 22:40 36.40342 28.08059 28 ft 25 kts 234°
2026-04-27 22:41 36.40235 28.07914 28 ft 20 kts 224°
2026-04-27 22:41 36.40164 28.07886 28 ft 9 kts 140°
2026-04-27 22:41 36.40165 28.07964 28 ft 10 kts 76°
2026-04-27 22:41 36.40184 28.08050 28 ft 11 kts 71°
2026-04-27 22:42 36.40202 28.08109 28 ft 5 kts 69°
2026-04-27 22:42 36.40216 28.08154 28 ft 7 kts 68°
2026-04-27 22:42 36.40252 28.08290 28 ft 22 kts 75°
2026-04-27 22:42 36.40307 28.08475 28 ft 23 kts 70°
2026-04-27 22:43 36.40360 28.08668 28 ft 24 kts 75°
2026-04-27 22:43 36.40370 28.08873 28 ft 21 kts 77°
2026-04-27 22:43 36.40357 28.08965 28 ft 9 kts 141°
2026-04-27 22:43 36.40321 28.08982 28 ft 0 kts 160°
2026-04-27 22:44 36.40376 28.09138 28 ft 0 kts 161°